Location: Ejido Mesa Redonda
(32.3758°N, 116.8815°W)
Time: 21:54:24
(UTC+00:00)

Daily predictions for brighter satellites

Satellite Brightness Start Highest point End
(mag) Time Altitude Azimuth Time Altitude Azimuth Time Altitude Azimuth
Cosmos 2082 Rocket 3.2 12:02:01 10° NW 12:06:13 22° W 12:07:19 21° WSW
Meteor 1-21 4.3 12:01:56 10° S 12:07:39 84° E 12:13:28 10° N
GP-B 3.0 12:04:29 10° N 12:08:55 83° W 12:13:20 10° S
CZ-2C R/B 3.8 12:09:19 10° NNW 12:12:32 26° WNW 12:13:57 21° WSW
Cosmos 2173 Rocket 4.3 12:07:27 10° N 12:13:31 68° E 12:19:35 10° SSE
Cosmos 1727 Rocket 4.3 12:08:42 10° SSW 12:14:33 46° W 12:20:32 10° N
Cosmos 1726 3.3 12:12:48 10° N 12:16:24 46° E 12:19:58 10° SSE
Cosmos 1484 Rocket 2.8 12:13:29 10° N 12:17:29 82° WNW 12:21:29 10° SSW
Cosmos 1125 Rocket 3.6 12:12:34 11° SSW 12:17:34 59° WNW 12:22:47 10° N
Cosmos 1607 4.5 12:13:01 10° SSW 12:19:16 63° ESE 12:25:40 10° NE
Cosmos 2151 Rocket 4.2 12:17:55 10° NNW 12:22:01 34° W 12:26:06 10° SSW
Cosmos 2263 4.4 12:18:01 11° SW 12:23:14 52° WNW 12:28:51 10° N
SL-24 R/B 3.9 12:20:57 10° S 12:25:23 74° WSW 12:29:19 10° NNW
METEOR-M 4.1 12:20:12 10° N 12:25:33 77° WNW 12:30:53 10° SSW
Cosmos 1766 4.3 12:22:40 10° NNW 12:26:00 26° W 12:29:20 10° SSW
Okean 2 Rocket 4.3 12:23:33 10° NW 12:26:56 22° W 12:30:17 10° SW
Cosmos 1459 Rocket 4.1 12:23:43 10° N 12:30:07 88° W 12:36:25 10° S
PSLV R/B 4.3 12:27:13 10° N 12:30:58 32° WNW 12:34:41 10° SW
FALCON 9 DEB 3.9 12:33:14 10° NNW 12:36:15 47° NE 12:39:16 10° ESE
Cosmos 1943 Rocket 4.0 12:34:04 10° W 12:37:05 14° WNW 12:40:07 10° NNW
Meteor 2-10 4.2 12:32:37 10° NNW 12:38:15 67° W 12:43:41 10° S
Cosmos 1975 Rocket 3.1 12:35:07 10° S 12:39:35 87° W 12:44:03 10° N
ALOS 3.0 12:36:54 10° N 12:41:04 33° WNW 12:45:14 10° SW
SL-4 R/B 2.4 12:39:43 10° NW 12:44:32 89° NE 12:49:07 10° SE
FALCON 9 DEB 2.9 12:43:00 10° NW 12:46:05 87° NE 12:49:11 10° SE
BREEZE-M DEB (TANK) 3.2 12:46:35 10° W 12:48:21 19° SW 12:50:14 10° S
H-2A R/B 2.4 12:44:34 10° SSE 12:48:40 68° ENE 12:52:54 10° N
ADEOS 3.6 12:45:37 10° NNE 12:50:51 83° WNW 12:56:03 10° SSW
Cosmos 2369 Rocket 3.6 12:47:49 10° WSW 12:51:53 20° WNW 12:55:59 10° NNW
